| time (UTC) | temp F | wind direction | speed MPH | gust MPH | rain 1hr in | rain 24hr in | rain mn in | humidity % | barometer mb |
| 20260508095145 | 65 | 296 | 5.0 | 9.0 | 0.00 | 0.00 | 0.00 | 65 | 1008.5 |
| 20260508092145 | 66 | 344 | 7.0 | 13.0 | 0.00 | 0.00 | 0.00 | 69 | 1008.0 |
| 20260508085145 | 66 | 278 | 1.0 | 7.0 | 0.00 | 0.00 | 0.00 | 71 | 1007.6 |
| 20260508082145 | 68 | 325 | 14.0 | 20.0 | 0.00 | 0.00 | 0.00 | 70 | 1007.0 |
| 20260508075145 | 72 | 291 | 6.0 | 9.0 | 0.00 | 0.00 | 0.00 | 65 | 1006.0 |
| 20260508072144 | 73 | 219 | 1.0 | 3.0 | 0.00 | 0.00 | 0.00 | 61 | 1005.6 |
| 20260508065145 | 74 | 271 | 8.0 | 14.0 | 0.00 | 0.00 | 0.00 | 57 | 1005.6 |
| 20260508062144 | 74 | 251 | 5.0 | 7.0 | 0.00 | 0.00 | 0.00 | 54 | 1005.4 |
| 20260508055145 | 75 | 267 | 9.0 | 15.0 | 0.00 | 0.00 | 0.00 | 55 | 1005.4 |
| 20260508052144 | 76 | 206 | 6.0 | 12.0 | 0.00 | 0.00 | 0.00 | 52 | 1005.6 |
| 20260508045146 | 77 | 280 | 8.0 | 12.0 | 0.00 | 0.00 | 0.00 | 52 | 1005.7 |
| 20260508042144 | 75 | 216 | 7.0 | 8.0 | 0.00 | 0.00 | 0.00 | 54 | 1006.1 |
| 20260508035144 | 75 | 216 | 6.0 | 9.0 | 0.00 | 0.00 | 0.00 | 54 | 1006.2 |
| 20260508032145 | 74 | 285 | 2.0 | 5.0 | 0.00 | 0.00 | 0.00 | 57 | 1006.3 |
| 20260508025145 | 75 | 201 | 2.0 | 2.0 | 0.00 | 0.00 | 0.00 | 56 | 1006.6 |
| 20260508022144 | 76 | 285 | 5.0 | 12.0 | 0.00 | 0.00 | 0.00 | 56 | 1006.8 |
| 20260508015144 | 76 | 209 | 5.0 | 10.0 | 0.00 | 0.00 | 0.00 | 59 | 1007.2 |
| 20260508012144 | 75 | 210 | 2.0 | 6.0 | 0.00 | 0.00 | 0.00 | 65 | 1007.1 |
| 20260508005144 | 74 | 205 | 3.0 | 5.0 | 0.00 | 0.00 | 0.00 | 68 | 1007.4 |
| 20260508002145 | 72 | 171 | 0.0 | 0.0 | 0.00 | 0.00 | 0.00 | 77 | 1007.5 |
| 20260507235145 | 70 | 291 | 0.0 | 0.0 | 0.00 | 0.00 | 0.00 | 81 | 1008.1 |
| 20260507232144 | 69 | 223 | 0.0 | 0.0 | 0.00 | 0.00 | 0.00 | 82 | 1008.1 |
| 20260507225144 | 69 | 22 | 0.0 | 0.0 | 0.00 | 0.00 | 0.00 | 83 | 1008.3 |
| 20260507222144 | 68 | 23 | 0.0 | 0.0 | 0.00 | 0.00 | 0.00 | 84 | 1008.0 |
| 20260507215145 | 68 | 23 | 0.0 | 0.0 | 0.00 | 0.00 | 0.00 | 85 | 1008.5 |
| 20260507212144 | 67 | 23 | 0.0 | 0.0 | 0.00 | 0.00 | 0.00 | 86 | 1008.4 |
| 20260507205145 | 67 | 23 | 0.0 | 0.0 | 0.00 | 0.00 | 0.00 | 86 | 1008.5 |
| 20260507202144 | 67 | 23 | 0.0 | 0.0 | 0.00 | 0.00 | 0.00 | 86 | 1008.5 |
| 20260507195144 | 67 | 23 | 0.0 | 0.0 | 0.00 | 0.00 | 0.00 | 86 | 1008.6 |
| 20260507192144 | 67 | 23 | 0.0 | 0.0 | 0.00 | 0.00 | 0.00 | 85 | 1008.6 |
| 20260507185145 | 67 | 23 | 0.0 | 0.0 | 0.00 | 0.00 | 0.00 | 84 | 1008.6 |
| 20260507182144 | 67 | 23 | 0.0 | 0.0 | 0.00 | 0.00 | 0.00 | 85 | 1008.8 |
| 20260507175145 | 68 | 23 | 0.0 | 0.0 | 0.00 | 0.00 | 0.00 | 83 | 1008.9 |
| 20260507172144 | 68 | 23 | 0.0 | 0.0 | 0.00 | 0.00 | 0.00 | 82 | 1009.0 |
| 20260507165143 | 68 | 25 | 0.0 | 0.0 | 0.00 | 0.00 | 0.00 | 81 | 1008.9 |
| 20260507162145 | 68 | 49 | 0.0 | 0.0 | 0.00 | 0.00 | 0.00 | 80 | 1009.6 |
| 20260507155145 | 67 | 49 | 0.0 | 0.0 | 0.00 | 0.00 | 0.00 | 79 | 1009.9 |
| 20260507152144 | 67 | 5 | 0.0 | 0.0 | 0.00 | 0.00 | 0.00 | 81 | 1010.1 |
| 20260507145143 | 67 | 335 | 0.0 | 0.0 | 0.00 | 0.00 | 0.00 | 81 | 1010.3 |
| 20260507142144 | 68 | 334 | 0.0 | 0.0 | 0.00 | 0.00 | 0.00 | 78 | 1010.5 |
| 20260507135145 | 69 | 44 | 0.0 | 0.0 | 0.00 | 0.00 | 0.00 | 75 | 1010.6 |
| 20260507132144 | 70 | 132 | 0.0 | 5.0 | 0.00 | 0.00 | 0.00 | 75 | 1010.6 |
| 20260507125144 | 71 | 200 | 0.0 | 0.0 | 0.00 | 0.00 | 0.00 | 73 | 1010.8 |
| 20260507122145 | 71 | 145 | 2.0 | 5.0 | 0.00 | 0.00 | 0.00 | 70 | 1010.7 |
| 20260507115144 | 72 | 172 | 0.0 | 0.0 | 0.00 | 0.00 | 0.00 | 68 | 1010.7 |
| 20260507112145 | 73 | 175 | 0.0 | 0.0 | 0.00 | 0.00 | 0.00 | 64 | 1010.5 |
| 20260507105144 | 74 | 279 | 0.0 | 0.0 | 0.00 | 0.00 | 0.00 | 59 | 1010.1 |
| 20260507102145 | 76 | 274 | 0.0 | 0.0 | 0.00 | 0.00 | 0.00 | 56 | 1009.9 |